Wind_Speed
6 6 5 5 4 4 4 4 4 4 5 6 6 6 5 5 4 4 3 3 2 2 1 2 2 1 1 1 1 2 1 2 2 2 2 2 1 0 1 1 1 2 3
6 6 5 5 5 4 4 5 5 5 6 7 6 6 5 4 4 3 3 3 2 1 1 2 2 1 1 1 1 1 2 1 1 1 1 1 0 1 2 2 2 2 3
7 6 6 6 6 5 5 6 7 6 7 7 6 5 5 4 4 4 3 3 1 1 1 1 1 1 0 1 1 1 2 2 1 1 1 0 1 2 2 3 3 3 3
7 7 6 6 6 6 6 6 6 7 6 6 6 5 4 4 3 3 3 3 2 1 1 1 1 1 1 1 1 1 1 2 1 1 1 1 2 2 2 2 2 3 3
8 7 7 7 7 7 7 7 6 6 6 6 5 5 4 3 3 2 2 2 1 1 1 1 2 2 2 2 2 2 2 2 2 2 2 2 3 2 2 2 2 2 3
8 8 7 7 7 7 7 7 7 6 5 5 5 4 3 3 2 2 2 2 1 1 1 2 2 2 3 3 3 2 3 2 2 2 2 2 3 2 2 2 2 2 3
8 9 8 8 8 7 7 7 7 6 5 5 4 4 3 2 1 1 2 1 1 1 1 1 2 3 4 4 3 3 3 3 2 2 2 3 3 2 2 3 3 3 3
9 8 8 8 8 8 8 8 7 6 5 5 4 4 3 2 1 1 1 1 1 1 1 2 2 3 4 5 4 4 4 3 3 3 3 3 3 3 3 3 4 4 4
9 9 8 8 8 8 8 8 7 6 5 5 4 3 3 2 2 1 1 1 1 1 2 2 3 2 4 4 4 3 3 4 4 4 4 4 4 4 4 4 4 5 5
10 9 9 8 7 7 6 6 6 6 5 5 4 3 3 3 2 1 1 1 1 1 2 2 2 3 4 3 4 3 4 4 5 5 5 5 5 5 5 5 6 6 6
9 9 9 8 8 8 7 6 6 6 5 5 4 3 3 2 2 1 1 1 1 1 2 2 2 2 3 3 4 4 5 5 5 5 5 5 5 6 6 6 7 7 7
9 9 8 8 8 8 9 7 7 6 5 4 4 4 3 2 1 0 1 1 1 2 2 2 2 3 3 3 4 5 5 5 5 5 5 5 6 6 6 7 8 8 8
10 9 9 9 8 8 7 7 7 6 6 5 4 3 3 2 1 1 1 2 2 2 2 2 2 2 3 4 4 4 4 4 5 5 5 5 6 5 6 7 8 8 9
10 9 9 9 9 8 7 8 7 6 6 6 4 3 3 2 2 2 2 2 2 2 2 3 2 2 2 3 3 3 3 4 4 4 5 5 5 6 6 7 8 9 9
10 10 10 10 9 8 8 8 8 7 7 6 6 5 4 3 3 2 3 3 3 3 3 3 3 2 3 3 3 3 3 4 4 5 5 5 6 6 7 7 8 8 8
10 10 9 10 9 8 7 7 7 7 7 6 6 6 5 4 4 3 2 3 3 3 2 3 3 3 3 3 3 3 3 4 5 5 5 5 6 7 8 8 8 8 8
10 9 10 10 9 9 8 7 7 7 7 7 6 6 5 4 4 4 3 3 3 3 3 3 3 3 3 3 3 3 4 4 4 5 5 5 6 6 7 7 8 8 8
10 9 9 9 9 9 8 7 7 7 7 7 6 6 5 5 4 4 4 4 3 3 3 4 3 3 3 4 4 5 5 5 6 6 6 6 6 6 7 7 8 8 8
10 9 8 8 8 8 7 7 7 7 7 6 6 6 6 5 4 4 4 4 4 4 4 4 4 4 4 4 5 6 6 6 6 7 6 6 7 7 7 7 8 8 9
9 8 7 7 7 7 7 6 6 6 6 6 6 6 6 6 5 5 5 5 5 5 5 4 4 5 5 5 5 6 6 6 7 7 7 7 7 7 7 7 8 8 9
7 7 6 5 5 6 5 5 5 5 5 5 6 6 6 6 6 5 6 6 6 6 5 5 5 6 6 6 6 6 6 7 7 8 8 9 8 8 8 8 9 9 10
7 6 5 5 5 5 4 4 4 5 5 5 6 6 6 7 6 6 6 6 7 7 7 6 6 6 7 7 7 7 8 8 8 9 9 10 10 10 10 9 10 10 10
6 5 4 4 4 5 4 4 4 5 5 5 6 7 7 7 7 7 7 7 7 7 7 7 7 7 7 8 8 9 9 10 10 10 10 10 10 11 11 11 11 11 11
6 5 5 4 5 5 6 5 5 5 5 5 6 7 8 8 7 7 8 8 8 8 8 9 9 9 9 9 9 10 10 10 11 11 11 11 12 12 12 12 12 12 12
6 6 5 5 5 5 6 6 6 5 5 6 7 8 9 9 8 8 9 9 10 10 10 11 11 10 10 10 11 11 11 12 12 11 11 12 13 13 13 13 13 13 13
6 6 6 5 6 6 6 7 7 6 6 7 8 9 9 9 9 10 11 10 11 11 12 12 12 11 11 11 12 12 12 12 13 12 12 12 13 13 13 13 14 14 14
Wind_Direction
48 44 44 45 57 65 68 62 72 94 110 123 133 128 126 124 122 118 108 108 111 90 45 23 11 10 21 70 76 87 91 69 68 79 80 86 83 34 335 295 264 229 228
48 49 50 57 68 72 74 68 81 98 111 121 134 131 127 126 121 124 123 115 115 114 28 13 25 24 40 74 45 58 47 34 39 58 63 44 42 324 313 300 276 251 236
53 57 57 57 64 69 73 73 86 96 105 117 122 125 125 121 117 114 118 117 108 69 25 39 22 6 32 15 25 32 4 354 352 329 4 350 295 320 306 292 281 264 252
57 58 60 64 69 73 77 85 93 96 106 111 115 123 127 125 121 110 99 92 74 59 55 32 353 324 312 325 297 308 324 305 277 271 287 306 296 304 311 299 286 267 257
62 61 66 69 72 74 82 92 98 105 108 111 117 121 129 136 140 135 109 98 77 50 27 9 339 321 299 279 270 272 275 284 267 265 280 283 290 289 295 304 294 268 266
67 67 70 71 70 73 80 88 95 96 101 109 117 119 125 131 155 178 142 104 48 29 14 339 329 309 286 272 264 258 256 261 266 266 282 296 294 288 281 282 290 281 272
72 71 69 72 72 73 80 87 91 89 93 107 113 118 129 139 150 186 153 84 44 33 341 325 303 288 275 263 264 279 261 255 275 242 261 290 288 291 285 279 282 279 273
74 77 75 72 74 78 81 85 89 91 99 104 111 112 114 110 114 131 132 123 69 356 318 321 320 295 271 261 268 277 272 255 266 255 258 278 277 275 283 279 280 278 278
71 74 76 74 74 80 82 82 83 84 94 96 99 102 111 115 110 137 185 191 254 296 292 303 306 308 270 272 280 283 286 259 253 256 258 265 267 272 280 280 283 282 280
65 68 74 74 71 74 77 78 84 84 87 84 91 91 82 109 115 135 162 185 233 265 286 295 287 289 278 280 288 286 282 267 255 259 261 263 265 271 276 282 282 282 279
64 68 70 72 73 72 77 81 85 80 85 75 81 90 83 88 83 122 162 182 221 266 298 298 288 288 269 281 286 282 275 271 263 261 265 268 268 269 270 276 279 279 279
62 65 66 67 70 72 72 74 78 76 84 82 80 76 77 67 54 302 274 275 278 282 292 294 290 279 282 288 277 277 273 274 261 268 273 275 269 266 266 272 276 279 279
65 68 68 66 68 71 71 70 74 78 81 81 79 76 63 57 34 339 306 299 288 284 289 277 272 283 293 288 282 285 282 270 269 270 276 278 269 266 271 275 276 277 276
61 66 69 69 71 71 70 72 74 79 81 79 73 71 65 51 40 23 351 319 299 297 304 310 296 278 304 294 290 291 275 268 274 272 278 276 270 270 275 275 276 278 278
62 64 67 68 69 70 70 72 73 73 75 66 59 60 63 59 40 17 8 348 331 315 316 319 320 306 297 290 285 286 271 269 279 280 276 273 276 279 275 274 278 282 280
61 61 64 67 64 62 66 69 69 69 67 59 54 50 55 55 46 35 14 354 343 329 331 340 341 330 312 298 295 304 295 284 293 290 287 283 286 283 276 273 276 273 274
58 58 63 64 62 62 67 69 66 65 62 55 48 46 40 37 37 28 17 13 4 351 340 337 337 325 310 301 301 304 305 299 299 301 294 291 291 289 284 277 275 276 278
57 58 60 61 60 64 67 66 62 58 55 49 47 42 34 25 24 23 25 16 1 345 335 333 332 320 308 304 302 303 300 296 299 304 305 303 301 292 287 285 280 280 281
52 53 56 55 57 57 59 58 57 54 48 41 38 33 27 20 11 8 1 355 346 343 337 329 322 313 312 307 304 304 301 295 296 303 305 302 306 304 296 293 286 282 284
49 50 55 55 54 50 50 49 49 44 34 26 23 18 11 6 2 356 345 344 339 338 331 319 309 304 302 305 305 306 307 300 302 304 306 303 303 304 303 298 294 291 289
45 46 50 53 50 47 43 38 37 31 23 19 13 7 359 356 351 342 336 336 335 332 331 323 319 306 296 298 300 298 303 307 304 303 300 301 301 300 299 298 297 295 294
41 40 42 44 40 36 27 18 16 14 13 13 8 1 350 346 344 337 333 331 330 332 334 331 331 318 304 302 297 295 298 303 304 299 295 292 294 297 297 296 297 297 296
24 24 28 27 25 22 12 8 7 5 4 4 358 350 344 338 335 338 336 328 330 332 332 329 327 321 311 305 300 296 294 295 298 295 290 287 290 293 293 293 294 294 295
3 5 6 6 1 356 351 352 358 2 353 346 342 342 342 339 333 330 330 328 326 324 320 318 316 315 311 307 304 300 295 296 295 294 291 288 288 289 290 292 294 295 296
351 349 350 349 341 343 343 339 341 347 344 340 338 337 336 335 333 329 325 321 319 312 309 310 310 307 308 307 304 301 297 293 292 289 291 289 290 290 290 293 294 294 294
343 334 334 335 330 325 324 322 320 326 330 330 330 329 331 330 329 327 324 320 316 310 307 305 304 303 303 303 302 299 297 293 291 287 287 288 290 290 289 292 293 292 293
Height
5874 5873 5871 5870 5870 5870 5870 5868 5867 5866 5867 5869 5872 5875 5878 5879 5880 5881 5883 5883 5884 5884 5885 5885 5886 5886 5886 5887 5887 5887 5888 5888 5888 5889 5889 5889 5889 5889 5889 5890 5890 5890 5891
5874 5873 5872 5871 5871 5871 5870 5869 5867 5866 5867 5870 5873 5876 5878 5880 5881 5882 5883 5884 5884 5885 5885 5886 5886 5887 5886 5887 5887 5888 5888 5888 5888 5889 5889 5889 5889 5889 5889 5890 5890 5890 5890
5875 5874 5873 5873 5872 5872 5871 5870 5869 5869 5870 5872 5875 5877 5879 5880 5881 5883 5883 5884 5885 5886 5886 5886 5886 5887 5886 5887 5887 5888 5888 5888 5888 5889 5889 5889 5889 5889 5889 5889 5889 5890 5890
5875 5875 5874 5874 5874 5873 5873 5872 5872 5872 5873 5875 5877 5878 5880 5881 5882 5883 5884 5885 5885 5886 5886 5886 5887 5886 5886 5887 5887 5888 5888 5888 5889 5889 5889 5889 5889 5889 5889 5889 5889 5889 5889
5876 5876 5875 5875 5875 5875 5875 5875 5874 5875 5876 5877 5878 5879 5880 5881 5882 5883 5884 5885 5885 5885 5886 5886 5886 5886 5886 5887 5887 5887 5888 5888 5888 5889 5889 5889 5889 5889 5889 5888 5888 5889 5889
5877 5877 5876 5876 5876 5876 5876 5876 5876 5877 5878 5878 5879 5880 5881 5881 5882 5883 5884 5884 5885 5885 5886 5886 5886 5886 5886 5886 5886 5887 5887 5888 5888 5888 5888 5888 5888 5888 5888 5888 5888 5888 5888
5878 5878 5877 5877 5877 5877 5877 5877 5878 5878 5879 5879 5880 5880 5881 5881 5882 5883 5883 5884 5885 5885 5885 5886 5886 5886 5885 5885 5886 5886 5886 5887 5887 5887 5888 5888 5888 5888 5888 5888 5888 5888 5888
5880 5879 5879 5879 5878 5878 5879 5879 5879 5880 5880 5880 5881 5881 5881 5881 5882 5882 5883 5884 5885 5885 5885 5886 5886 5886 5885 5884 5885 5886 5886 5886 5887 5887 5887 5887 5887 5887 5887 5887 5887 5887 5887
5881 5880 5880 5880 5879 5879 5880 5880 5881 5881 5881 5881 5881 5881 5881 5881 5882 5882 5883 5884 5884 5885 5885 5886 5886 5885 5885 5885 5885 5885 5885 5885 5886 5886 5886 5887 5887 5886 5886 5886 5887 5887 5887
5882 5882 5881 5881 5880 5881 5881 5881 5882 5882 5882 5882 5882 5881 5882 5882 5882 5882 5883 5884 5884 5885 5885 5885 5885 5885 5885 5884 5885 5885 5885 5885 5885 5885 5886 5886 5886 5886 5886 5886 5886 5885 5885
5883 5883 5882 5882 5882 5882 5882 5882 5882 5883 5883 5883 5883 5882 5882 5883 5883 5883 5883 5884 5884 5885 5885 5885 5885 5885 5884 5884 5884 5884 5884 5884 5884 5885 5885 5885 5885 5885 5885 5884 5884 5884 5884
5884 5884 5883 5883 5883 5883 5883 5883 5883 5883 5883 5883 5883 5884 5884 5884 5884 5884 5884 5884 5884 5885 5885 5884 5884 5884 5884 5884 5884 5884 5883 5883 5883 5884 5884 5884 5884 5883 5883 5883 5883 5883 5882
5885 5885 5885 5885 5884 5884 5885 5884 5884 5884 5884 5884 5884 5885 5884 5884 5885 5885 5885 5885 5885 5885 5885 5884 5884 5884 5884 5883 5883 5883 5882 5882 5883 5883 5883 5883 5882 5882 5882 5881 5881 5881 5881
5887 5886 5886 5886 5886 5886 5886 5886 5886 5886 5886 5886 5886 5885 5885 5885 5885 5885 5885 5885 5885 5884 5884 5884 5883 5883 5883 5883 5883 5882 5882 5882 5882 5882 5882 5882 5881 5881 5880 5880 5880 5879 5879
5889 5888 5887 5887 5887 5887 5887 5887 5887 5887 5887 5887 5886 5886 5886 5886 5886 5886 5885 5885 5885 5884 5884 5884 5883 5883 5883 5882 5882 5882 5882 5881 5881 5881 5881 5880 5880 5880 5879 5879 5878 5877 5877
5890 5890 5889 5889 5888 5888 5888 5888 5888 5888 5888 5888 5887 5887 5887 5887 5886 5886 5886 5885 5885 5884 5884 5883 5883 5882 5882 5882 5882 5881 5881 5881 5880 5880 5880 5879 5879 5878 5878 5877 5876 5875 5875
5892 5892 5891 5890 5890 5889 5889 5889 5889 5889 5889 5889 5888 5888 5887 5887 5887 5887 5886 5885 5885 5884 5884 5883 5882 5882 5882 5882 5881 5881 5880 5880 5880 5879 5878 5878 5877 5876 5876 5875 5874 5874 5873
5894 5893 5892 5892 5891 5890 5890 5891 5891 5891 5890 5890 5889 5889 5888 5888 5887 5887 5886 5886 5885 5884 5883 5883 5882 5882 5881 5881 5880 5880 5880 5879 5879 5878 5877 5877 5876 5875 5874 5873 5873 5872 5871
5895 5894 5894 5893 5893 5892 5892 5892 5892 5892 5891 5891 5890 5889 5889 5888 5888 5887 5886 5885 5885 5884 5883 5882 5882 5881 5881 5880 5880 5879 5879 5878 5877 5877 5876 5875 5875 5873 5872 5872 5870 5869 5869
5896 5896 5895 5895 5894 5894 5894 5893 5893 5892 5892 5891 5890 5890 5889 5888 5887 5887 5886 5885 5884 5884 5883 5882 5881 5880 5880 5879 5879 5878 5877 5877 5876 5875 5874 5874 5873 5872 5871 5870 5869 5867 5867
5897 5897 5896 5896 5895 5895 5894 5894 5893 5893 5892 5891 5891 5890 5889 5888 5887 5886 5886 5885 5883 5882 5881 5881 5880 5879 5878 5878 5877 5877 5876 5875 5874 5873 5873 5872 5871 5870 5869 5868 5867 5866 5865
5898 5897 5897 5896 5896 5896 5895 5894 5893 5893 5892 5891 5891 5890 5889 5888 5887 5886 5885 5884 5883 5882 5880 5879 5878 5877 5877 5876 5876 5875 5875 5874 5873 5872 5871 5870 5869 5868 5867 5866 5865 5864 5862
5899 5898 5897 5896 5896 5895 5894 5893 5893 5892 5892 5891 5890 5889 5888 5887 5886 5885 5884 5883 5882 5881 5879 5878 5877 5876 5875 5874 5874 5873 5872 5872 5871 5870 5869 5868 5867 5865 5864 5863 5862 5861 5860
5898 5898 5897 5896 5896 5895 5894 5893 5892 5892 5891 5890 5890 5889 5888 5886 5885 5884 5883 5882 5881 5879 5878 5877 5876 5875 5873 5872 5871 5870 5870 5869 5868 5867 5866 5865 5864 5863 5862 5861 5860 5858 5857
5898 5897 5897 5896 5895 5894 5894 5893 5892 5891 5890 5890 5889 5888 5887 5885 5884 5883 5882 5880 5879 5878 5876 5875 5874 5873 5871 5870 5869 5868 5867 5866 5864 5864 5863 5862 5861 5860 5859 5858 5857 5855 5854
5898 5897 5896 5895 5894 5894 5893 5892 5891 5890 5889 5888 5888 5886 5885 5884 5883 5881 5880 5879 5877 5876 5874 5873 5872 5870 5869 5867 5866 5865 5864 5863 5862 5861 5860 5859 5858 5856 5855 5854 5853 5852 5851